• In Uzbekistan
  • List of Countries
  • For 7 days
  • Water Temperature
  • Satellite Maps
  • Weather Map
  • Weather Widgets
  • user-avatar
    Login

    Hourly Weather Banda

    Today, 14 December, Thursday

    Time Temperature Precipitation Wind Pressure Humidity
    00:00 +20°C° 0 mm 2 mps 752 mmHg 50%
    01:00 +19°C° 0 mm 2 mps 752 mmHg 51%
    02:00 +19°C° 0 mm 2 mps 752 mmHg 52%
    03:00 +18°C° 0 mm 2 mps 752 mmHg 53%
    04:00 +19°C° 0 mm 1 mps 752 mmHg 55%
    05:00 +18°C° 0 mm 1 mps 752 mmHg 62%
    06:00 +18°C° 0 mm 2 mps 752 mmHg 60%
    07:00 +18°C° 0 mm 2 mps 753 mmHg 58%
    08:00 +19°C° 0 mm 2 mps 754 mmHg 56%
    09:00 +21°C° 0 mm 2 mps 754 mmHg 50%
    10:00 +24°C° 0 mm 2 mps 754 mmHg 44%
    11:00 +26°C° 0 mm 3 mps 754 mmHg 38%
    12:00 +27°C° 0 mm 3 mps 753 mmHg 36%
    13:00 +28°C° 0 mm 3 mps 752 mmHg 35%
    14:00 +28°C° 0 mm 3 mps 752 mmHg 33%
    15:00 +27°C° 0 mm 2 mps 752 mmHg 36%
    16:00 +26°C° 0 mm 2 mps 752 mmHg 39%
    17:00 +24°C° 0 mm 2 mps 752 mmHg 41%
    18:00 +23°C° 0 mm 2 mps 752 mmHg 42%
    19:00 +23°C° 0 mm 2 mps 752 mmHg 43%
    20:00 +21°C° 0 mm 2 mps 753 mmHg 44%
    21:00 +20°C° 0 mm 2 mps 753 mmHg 44%
    22:00 +20°C° 0 mm 2 mps 753 mmHg 44%
    23:00 +19°C° 0 mm 2 mps 753 mmHg 43%

    Tomorrow, 15 December, Friday

    Time Temperature Precipitation Wind Pressure Humidity
    00:00 +19°C° 0 mm 2 mps 753 mmHg 43%
    01:00 +19°C° 0 mm 2 mps 753 mmHg 42%
    02:00 +18°C° 0 mm 2 mps 752 mmHg 42%
    03:00 +18°C° 0 mm 2 mps 752 mmHg 42%
    04:00 +17°C° 0 mm 2 mps 752 mmHg 41%
    05:00 +18°C° 0 mm 1 mps 752 mmHg 41%
    06:00 +19°C° 0 mm 1 mps 753 mmHg 40%
    07:00 +20°C° 0 mm 1 mps 754 mmHg 38%
    08:00 +20°C° 0 mm 1 mps 754 mmHg 37%
    09:00 +21°C° 0 mm 2 mps 754 mmHg 34%
    10:00 +24°C° 0 mm 2 mps 754 mmHg 31%
    11:00 +26°C° 0 mm 2 mps 754 mmHg 28%
    12:00 +27°C° 0 mm 2 mps 753 mmHg 28%
    13:00 +28°C° 0 mm 3 mps 753 mmHg 28%
    14:00 +29°C° 0 mm 3 mps 752 mmHg 28%
    15:00 +28°C° 0 mm 3 mps 752 mmHg 31%
    16:00 +26°C° 0 mm 3 mps 752 mmHg 35%
    17:00 +25°C° 0 mm 2 mps 752 mmHg 38%
    18:00 +24°C° 0 mm 2 mps 752 mmHg 39%
    19:00 +23°C° 0 mm 2 mps 753 mmHg 41%
    20:00 +21°C° 0 mm 2 mps 753 mmHg 42%
    21:00 +20°C° 0 mm 2 mps 753 mmHg 42%
    22:00 +20°C° 0 mm 2 mps 753 mmHg 42%
    23:00 +19°C° 0 mm 2 mps 753 mmHg 41%

    Day after tomorrow, 16 December, Saturday

    Time Temperature Precipitation Wind Pressure Humidity
    00:00 +19°C° 0 mm 2 mps 753 mmHg 41%
    01:00 +18°C° 0 mm 2 mps 753 mmHg 40%
    02:00 +18°C° 0 mm 2 mps 753 mmHg 40%
    03:00 +18°C° 0 mm 2 mps 753 mmHg 39%
    04:00 +17°C° 0 mm 2 mps 753 mmHg 39%
    05:00 +17°C° 0 mm 2 mps 753 mmHg 39%
    06:00 +17°C° 0 mm 2 mps 754 mmHg 37%
    07:00 +18°C° 0 mm 2 mps 755 mmHg 35%
    08:00 +19°C° 0 mm 2 mps 755 mmHg 33%
    09:00 +21°C° 0 mm 2 mps 755 mmHg 30%
    10:00 +24°C° 0 mm 3 mps 755 mmHg 26%
    11:00 +26°C° 0 mm 3 mps 755 mmHg 23%
    12:00 +27°C° 0 mm 3 mps 754 mmHg 23%
    13:00 +28°C° 0 mm 3 mps 753 mmHg 24%
    14:00 +29°C° 0 mm 4 mps 753 mmHg 24%
    15:00 +27°C° 0 mm 3 mps 753 mmHg 27%
    16:00 +26°C° 0 mm 3 mps 753 mmHg 30%
    17:00 +24°C° 0 mm 3 mps 753 mmHg 32%
    18:00 +22°C° 0 mm 3 mps 753 mmHg 33%
    19:00 +21°C° 0 mm 3 mps 754 mmHg 34%
    20:00 +20°C° 0 mm 3 mps 754 mmHg 34%
    21:00 +20°C° 0 mm 2 mps 754 mmHg 34%
    22:00 +19°C° 0 mm 2 mps 754 mmHg 33%
    23:00 +19°C° 0 mm 2 mps 754 mmHg 33%

    17 December, Sunday

    Time Temperature Precipitation Wind Pressure Humidity
    00:00 +18°C° 0 mm 2 mps 754 mmHg 33%
    01:00 +18°C° 0 mm 2 mps 754 mmHg 32%
    02:00 +17°C° 0 mm 2 mps 754 mmHg 32%
    03:00 +17°C° 0 mm 2 mps 754 mmHg 32%
    04:00 +16°C° 0 mm 2 mps 754 mmHg 31%
    05:00 +16°C° 0 mm 2 mps 754 mmHg 31%
    06:00 +16°C° 0 mm 2 mps 755 mmHg 30%
    07:00 +17°C° 0 mm 3 mps 755 mmHg 29%
    08:00 +18°C° 0 mm 3 mps 756 mmHg 28%
    09:00 +20°C° 0 mm 3 mps 756 mmHg 24%
    10:00 +23°C° 0 mm 4 mps 756 mmHg 21%
    11:00 +26°C° 0 mm 4 mps 756 mmHg 17%
    12:00 +27°C° 0 mm 4 mps 755 mmHg 17%
    13:00 +28°C° 0 mm 4 mps 754 mmHg 17%
    14:00 +28°C° 0 mm 5 mps 753 mmHg 17%
    15:00 +26°C° 0 mm 4 mps 753 mmHg 20%
    16:00 +25°C° 0 mm 3 mps 753 mmHg 23%
    17:00 +22°C° 0 mm 3 mps 753 mmHg 25%
    18:00 +20°C° 0 mm 2 mps 754 mmHg 27%
    19:00 +19°C° 0 mm 2 mps 754 mmHg 29%
    20:00 +18°C° 0 mm 2 mps 755 mmHg 30%
    21:00 +18°C° 0 mm 2 mps 755 mmHg 31%
    22:00 +17°C° 0 mm 2 mps 755 mmHg 32%
    23:00 +18°C° 0 mm 1 mps 755 mmHg 33%

    18 December, Monday

    Time Temperature Precipitation Wind Pressure Humidity
    00:00 +16°C° 0 mm 2 mps 754 mmHg 33%
    01:00 +16°C° 0 mm 2 mps 754 mmHg 34%
    02:00 +15°C° 0 mm 2 mps 754 mmHg 34%
    03:00 +15°C° 0 mm 2 mps 754 mmHg 35%
    04:00 +14°C° 0 mm 2 mps 754 mmHg 35%
    05:00 +14°C° 0 mm 2 mps 754 mmHg 36%
    06:00 +15°C° 0 mm 2 mps 755 mmHg 35%
    07:00 +16°C° 0 mm 2 mps 755 mmHg 33%
    08:00 +17°C° 0 mm 2 mps 756 mmHg 32%
    09:00 +19°C° 0 mm 3 mps 756 mmHg 28%
    10:00 +22°C° 0 mm 3 mps 756 mmHg 23%
    11:00 +25°C° 0 mm 3 mps 756 mmHg 18%
    12:00 +26°C° 0 mm 3 mps 755 mmHg 17%
    13:00 +27°C° 0 mm 3 mps 754 mmHg 16%
    14:00 +28°C° 0 mm 3 mps 753 mmHg 15%
    15:00 +26°C° 0 mm 3 mps 753 mmHg 18%
    16:00 +24°C° 0 mm 3 mps 753 mmHg 21%
    17:00 +21°C° 0 mm 2 mps 753 mmHg 25%
    18:00 +20°C° 0 mm 2 mps 753 mmHg 26%
    19:00 +19°C° 0 mm 2 mps 754 mmHg 28%
    20:00 +20°C° 0 mm 1 mps 754 mmHg 29%
    21:00 +19°C° 0 mm 1 mps 754 mmHg 30%
    22:00 +19°C° 0 mm 1 mps 754 mmHg 30%
    23:00 +18°C° 0 mm 1 mps 754 mmHg 31%

    19 December, Tuesday

    Time Temperature Precipitation Wind Pressure Humidity
    00:00 +17°C° 0 mm 2 mps 754 mmHg 31%
    01:00 +17°C° 0 mm 2 mps 754 mmHg 31%
    02:00 +16°C° 0 mm 2 mps 753 mmHg 32%
    03:00 +16°C° 0 mm 2 mps 753 mmHg 32%
    04:00 +15°C° 0 mm 2 mps 753 mmHg 33%
    05:00 +15°C° 0 mm 2 mps 753 mmHg 34%
    06:00 +16°C° 0 mm 2 mps 754 mmHg 33%
    07:00 +17°C° 0 mm 2 mps 755 mmHg 32%
    08:00 +17°C° 0 mm 2 mps 755 mmHg 31%
    09:00 +20°C° 0 mm 2 mps 755 mmHg 28%
    10:00 +23°C° 0 mm 2 mps 755 mmHg 24%
    11:00 +25°C° 0 mm 3 mps 755 mmHg 20%
    12:00 +26°C° 0 mm 3 mps 754 mmHg 19%
    13:00 +27°C° 0 mm 3 mps 754 mmHg 19%
    14:00 +27°C° 0 mm 3 mps 753 mmHg 18%
    15:00 +26°C° 0 mm 3 mps 753 mmHg 21%
    16:00 +24°C° 0 mm 2 mps 753 mmHg 23%
    17:00 +21°C° 0 mm 2 mps 753 mmHg 26%
    18:00 +22°C° 0 mm 1 mps 754 mmHg 27%
    19:00 +21°C° 0 mm 1 mps 754 mmHg 28%
    20:00 +20°C° 0 mm 1 mps 754 mmHg 29%
    21:00 +20°C° 0 mm 1 mps 754 mmHg 30%
    22:00 +19°C° 0 mm 1 mps 754 mmHg 31%
    23:00 +18°C° 0 mm 1 mps 754 mmHg 32%
    Show more